星链-33993 (STARLINK-33993)

导读 | 豆包AI

STARLINK-33993是美国太空探索技术公司Starlink星链星座的一员,星链项目旨在搭建覆盖全球的卫星互联网。该卫星于2025年5月13日由美国发射升空,属于低轨通信卫星,入轨后将参与星链网络组网,为全球偏远地区、远洋海域等场景提供高速互联网接入服务,进一步扩充星链星座的卫星规模与服务覆盖能力。

Basic Information
目录编号:
63949
目录名称:
STARLINK-33993
国际标识:
2025-098Z
轨道中心:
EARTH
卫星名称:
星链-33993
卫星全名:
星链-33993 (STARLINK-33993)
卫星状态:
在轨 (已飞行351 天)
发射日期:
2025-05-13 UTC
国别 :
美国 (US)
星等 :
--
Orbit Information
数据来源 国际轨道数据 AOE轨道数据
星历时间 2026-04-29T19:26:09+0800
9小时前
查看轨道信息
2026-04-29T05:00:00+0800
23小时前
查看轨道信息
半长轴 6950.179km 6950.208km
偏心率 0.0003216 0.0002736
轨道倾角 70.001° 69.999°
近地点辐角 267.403° 271.549°
升交点赤经 146.238° 147.755°
平近点角 92.676° 85.019°
近地点 569.806km 570.169km
远地点 574.278km 573.973km
周期 96.107分钟 96.107分钟
每日圈数 14.983347 14.983253
Detailed Information
固有亮度:
5
最大亮度:
2.5
卫星平台:
Starlink V1.0
覆盖范围:
全球
运营商:
太空探索技术公司
运营商所在国:
美国
制造商(研发单位):
太空探索技术公司
制造商所在国:
美国
使用方式:
暂无
Satellite Introduction
Starlink 计划是 SpaceX 推出的全球卫星互联网项目,通过发射低轨道卫星,为全球尤其是偏远地区提供高速、低延迟的互联网服务。自 2019 年起,Starlink 已部署数千颗卫星,旨在缩小全球数字鸿沟,推动互联网普及。该项目还为军事、航空等行业提供通信支持,带来广泛经济效益。
2D Orbit Map
3D Orbit Map
Orbit Altitude Analysis Chart
Orbit Inclination Analysis Chart
Orbit Comprehensive Analysis Chart
View Comprehensive Chart